Flag for Germany Weather for the Past 2 Weeks in Königs Wusterhausen, Brandenburg, Germany

Now
63 °F

Scattered clouds.


Feels Like: 63 °F
Forecast: 46 / 58 °F
Wind: 22 mph from Northwest

Location: Berlin-Schoenefeld

Current Time: May 3, 2016 at 6:34:37 PM

Latest Report: May 3, 2016 at 5:50 PM


Visibility: N/A

Pressure: 30.04 "Hg

Humidity: 64%

Dew Point: 50 °F

Location of Königs WusterhausenLocation

Historic Weather in Königs Wusterhausen — Graph

°F

Königs Wusterhausen Temperature Yesterday

Maximum temperature yesterday: 64 °F (at 2:20 PM)
Minimum temperature yesterday: 41 °F (at 5:20 AM)
Average temperature yesterday: 55 °F

High & Low Weather Summary for the Past Weeks

 TemperatureHumidityPressure
High66 °F (May 3, 3:50 PM)100% (Apr 25, 1:20 AM)30.36 "Hg (Apr 25, 1:20 AM)
Low30 °F (Apr 29, 5:20 AM)28% (Apr 30, 3:50 PM)29.47 "Hg (Apr 26, 4:20 AM)
Average47 °F64%29.98 "Hg
* Reported Apr 18 5:20 PM — May 3 5:20 PM, Königs Wusterhausen, Weather by CustomWeather, © 2016

Note: Actual official high and low records may vary slightly from our data, if they occured in-between our weather recording intervals... More about our weather records

Advertising

Königs Wusterhausen Weather History for the Previous 24 Hours

Scroll right to see more
 ConditionsComfort  
Time TempWeatherWind HumidityBarometerVisibility
5:20 PM
Tue, May 3
66 °FScattered clouds.5 mph32%30.01 "HgN/A
4:50 PM66 °FSunny.2 mph35%30.01 "Hg10 mi
4:20 PM66 °FPassing clouds.5 mph35%30.01 "HgN/A
3:50 PM66 °FSunny.7 mph32%30.01 "Hg10 mi
3:20 PM64 °FSunny.1 mph34%30.01 "Hg10 mi
2:50 PM64 °FSunny.2 mph40%30.01 "Hg10 mi
2:20 PM64 °FSunny.1 mph40%30.01 "Hg10 mi
1:50 PM64 °FPassing clouds.3 mph46%30.01 "HgN/A
1:20 PM64 °FPassing clouds.3 mph43%30.04 "HgN/A
12:50 PM63 °FSunny.1 mph42%30.04 "Hg10 mi
12:20 PM63 °FPassing clouds.3 mph39%30.04 "HgN/A
11:50 AM63 °FSunny.2 mph45%30.04 "Hg10 mi
11:20 AM64 °FScattered clouds.3 mph46%30.04 "HgN/A
10:50 AM61 °FPassing clouds.2 mph48%30.04 "HgN/A
10:20 AM61 °FPassing clouds.2 mph52%30.04 "HgN/A
9:50 AM59 °FPassing clouds.5 mph59%30.04 "HgN/A
9:20 AM55 °FPassing clouds.3 mph67%30.07 "HgN/A
8:50 AM54 °FSunny.2 mph72%30.07 "Hg10 mi
8:20 AM50 °FSunny.2 mph82%30.07 "Hg10 mi
7:20 AM46 °FSunny.2 mph87%30.07 "Hg10 mi
6:50 AM45 °FSunny.2 mph93%30.07 "Hg10 mi
6:20 AM41 °FClear.No wind93%30.07 "Hg10 mi
5:50 AM41 °FClear.2 mph93%30.07 "Hg10 mi
5:20 AM43 °FClear.1 mph93%30.07 "Hg10 mi
4:50 AM41 °FPassing clouds.3 mph93%30.07 "HgN/A
4:20 AM43 °FClear.1 mph87%30.07 "Hg10 mi
3:20 AM41 °FClear.2 mph93%30.07 "Hg10 mi
2:50 AM43 °FClear.2 mph87%30.09 "Hg10 mi
2:20 AM45 °FClear.3 mph87%30.09 "Hg10 mi
1:50 AM46 °FClear.1 mph82%30.09 "Hg10 mi
1:20 AM45 °FClear.No wind81%30.12 "Hg10 mi
12:50 AM46 °FClear.No wind82%30.12 "Hg10 mi
12:20 AM50 °FClear.1 mph71%30.12 "Hg10 mi
11:50 PM
Mon, May 2
48 °FClear.No wind71%30.12 "Hg10 mi
11:20 PM48 °FClear.2 mph71%30.12 "Hg10 mi
10:50 PM50 °FPassing clouds.5 mph71%30.12 "HgN/A
10:20 PM52 °FClear.2 mph67%30.12 "Hg10 mi
9:50 PM54 °FClear.3 mph58%30.12 "Hg10 mi
9:20 PM55 °FSunny.3 mph55%30.12 "Hg10 mi
8:50 PM59 °FSunny.3 mph48%30.12 "Hg10 mi
8:20 PM59 °FSunny.3 mph48%30.12 "Hg10 mi
7:50 PM61 °FSunny.5 mph45%30.12 "Hg10 mi
7:20 PM63 °FSunny.6 mph42%30.12 "Hg10 mi
6:50 PM63 °FPassing clouds.9 mph42%30.15 "HgN/A
6:20 PM64 °FSunny.8 mph40%30.15 "Hg10 mi
Weather by CustomWeather, © 2016

See weather overviewHow to use our weather pages